(95040) = 2002 AC28 = 1999 LT28

Discovered at Anderson Mesa on 2002-01-07 by LONEOS.

Orbit

Orbit type: Main Belt

Note: WebGL enabled browser required.

epoch2024-03-31.0
epoch JD2460400.5
perihelion date2020-08-25.46020
perihelion JD2459086.96020
argument of perihelion (°)44.97401
ascending node (°)68.46862
inclination (°)3.18355
eccentricity0.1377612
perihelion distance (AU)2.0760610
Tisserand w.r.t. Jupiter3.5
ΔV w.r.t. Earth (km/sec)9.0
semimajor axis (AU)2.4077564
mean anomaly (°)346.51997
mean daily motion (°/day)0.26380620
aphelion distance (AU)2.739
period (years)3.74
P-vector [x]-0.39681606
P-vector [y]0.82577150
P-vector [z]0.40079725
Q-vector [x]-0.91644330
Q-vector [y]-0.38099756
Q-vector [z]-0.12236235
absolute magnitude16.15
phase slope0.15
uncertainty0
referenceMPEC 2024-F74
observations used1149
oppositions17
arc length (days)12081
first opposition used1991
last opposition used2024
residual rms (arc-secs)0.70
perturbers coarse indicatorM-v
perturbers precise indicator003Ek
first observation date used1991-02-22.0
last observation date used2024-03-21.0
computer nameMPCLINUX
JD of orbit computation2456847.793850
perihelion JD uncertainty (days)5.8040E-05
argument of perihelion uncertainty (°)5.7273E-05
ascending node uncertainty (°)5.5155E-05
inclination uncertainty (°)3.6244E-06
eccentricity uncertainty 2.7604E-08
perihelion distance uncertainty (AU)6.8290E-08
Minimum Orbit Intersection Distances (in AU)
for orbit epoch: 2460400.5, reference: E2024-G02
Mercury1.75399
Venus1.35737
Earth1.09451
Mars0.43898
Jupiter2.3538
Saturn6.91242
Uranus16.2096
Neptune27.3625

Observations

1162 total observations over interval: 1991 02 22.31759 – 2024 03 21.137749
These data are available for download (format description).

Date (UT) J2000 RA J2000 Dec Magn Location Ref
1991 02 22.31759 11 25 42.35 +09 58 37.5 19.5 V 691 – Steward Observatory, Kitt Peak-Spacewatch MPS 78231
1991 02 22.34004 11 25 41.17 +09 58 45.9 19.6 V 691 – Steward Observatory, Kitt Peak-Spacewatch MPS 78231
1991 02 22.36246 11 25 40.00 +09 58 54.0 19.5 V 691 – Steward Observatory, Kitt Peak-Spacewatch MPS 78231
1997 12 31.28177 04 33 16.38 +23 23 39.7 18.9   704 – Lincoln Laboratory ETS, New Mexico MPS 52469
1997 12 31.29765 04 33 15.70 +23 23 39.9 19.2   704 – Lincoln Laboratory ETS, New Mexico MPS 52469
1997 12 31.31319 04 33 14.95 +23 23 38.0 18.7   704 – Lincoln Laboratory ETS, New Mexico MPS 52469
1997 12 31.32873 04 33 14.24 +23 23 40.1 19.1   704 – Lincoln Laboratory ETS, New Mexico MPS 52469
1999 05 19.35036 15 42 06.30 -18 38 55.2 18.6 V 691 – Steward Observatory, Kitt Peak-Spacewatch MPS 80034
1999 05 19.37814 15 42 04.44 -18 38 52.5 19.5 V 691 – Steward Observatory, Kitt Peak-Spacewatch MPS 80034
1999 05 19.40027 15 42 03.03 -18 38 49.5 19.8 V 691 – Steward Observatory, Kitt Peak-Spacewatch MPS 80034
1999 06 07.22832 15 24 11.14 -18 02 07.5 20.0 V 691 – Steward Observatory, Kitt Peak-Spacewatch MPS 5284
1999 06 07.25016 15 24 10.06 -18 02 05.3 19.9 V 691 – Steward Observatory, Kitt Peak-Spacewatch MPS 5284
1999 06 07.27177 15 24 08.94 -18 02 03.4 20.0 V 691 – Steward Observatory, Kitt Peak-Spacewatch MPS 5284
1999 06 14.17323 15 19 10.20 -17 52 43.8 20.5 V 691 – Steward Observatory, Kitt Peak-Spacewatch MPS 5284
1999 06 14.19500 15 19 09.30 -17 52 41.6 20.7 V 691 – Steward Observatory, Kitt Peak-Spacewatch MPS 5284
1999 06 14.21673 15 19 08.44 -17 52 40.1 20.5 V 691 – Steward Observatory, Kitt Peak-Spacewatch MPS 5284
1999 06 15.22341 15 18 30.64 -17 51 37.0 19.9 V 691 – Steward Observatory, Kitt Peak-Spacewatch MPS 80034
1999 06 15.22911 15 18 30.41 -17 51 36.2 20.0 V 691 – Steward Observatory, Kitt Peak-Spacewatch MPS 80034
1999 06 15.23486 15 18 30.16 -17 51 35.8 20.2 V 691 – Steward Observatory, Kitt Peak-Spacewatch MPS 80034
1999 06 22.16053 15 14 54.47 -17 46 37.9 21.3 V 691 – Steward Observatory, Kitt Peak-Spacewatch MPS 80034
1999 06 22.16528 15 14 54.33 -17 46 37.8 20.9 V 691 – Steward Observatory, Kitt Peak-Spacewatch MPS 80034
1999 06 22.17058 15 14 54.18 -17 46 37.1 20.7 V 691 – Steward Observatory, Kitt Peak-Spacewatch MPS 80034
2001 12 21.39673 09 03 02.30 +20 44 56.4 19.6   704 – Lincoln Laboratory ETS, New Mexico MPS 47316
2001 12 21.41165 09 03 02.08 +20 44 58.7 19.9   704 – Lincoln Laboratory ETS, New Mexico MPS 47316
2001 12 21.42690 09 03 01.97 +20 45 03.4 19.5   704 – Lincoln Laboratory ETS, New Mexico MPS 47316
2002 01 07.32068 08 56 07.42 +22 00 09.6 18.4 R 699 – Lowell Observatory-LONEOS MPS 47316
2002 01 07.34814 08 56 06.21 +22 00 18.3   699 – Lowell Observatory-LONEOS MPS 47316
2002 01 07.37564 08 56 05.00 +22 00 27.5   699 – Lowell Observatory-LONEOS MPS 47316
2002 01 07.40320 08 56 03.74 +22 00 35.9   699 – Lowell Observatory-LONEOS MPS 47316
2002 01 08.31058 08 55 25.26 +22 05 26.2 18.2   704 – Lincoln Laboratory ETS, New Mexico MPS 47316
2002 01 08.32549 08 55 24.58 +22 05 31.1 19.0   704 – Lincoln Laboratory ETS, New Mexico MPS 47316
2002 01 08.34041 08 55 23.85 +22 05 35.6 18.7   704 – Lincoln Laboratory ETS, New Mexico MPS 47316
2002 01 08.35532 08 55 23.19 +22 05 40.8 18.5   704 – Lincoln Laboratory ETS, New Mexico MPS 47316
2002 01 08.37026 08 55 22.44 +22 05 45.6 19.1   704 – Lincoln Laboratory ETS, New Mexico MPS 47316
2002 01 10.28592 08 53 56.02 +22 16 08.7 18.4   644 – Palomar Mountain/NEAT MPS 47316
2002 01 10.29169 08 53 55.76 +22 16 10.7 18.2   644 – Palomar Mountain/NEAT MPS 47316
2002 01 10.35410 08 53 52.66 +22 16 31.6 18.1   644 – Palomar Mountain/NEAT MPS 47316
2002 01 10.36959 08 53 51.90 +22 16 36.8 18.1   644 – Palomar Mountain/NEAT MPS 47316
2002 01 10.42011 08 53 49.35 +22 16 53.3 18.2   644 – Palomar Mountain/NEAT MPS 47316
2002 01 10.43214 08 53 48.77 +22 16 57.2 18.2   644 – Palomar Mountain/NEAT MPS 47316
2002 01 11.39660 08 53 02.63 +22 22 14.6 18.1 R 699 – Lowell Observatory-LONEOS MPS 47316
2002 01 11.41999 08 53 01.40 +22 22 22.2   699 – Lowell Observatory-LONEOS MPS 47316
2002 01 11.44342 08 53 00.21 +22 22 29.8   699 – Lowell Observatory-LONEOS MPS 47316
2002 01 11.46694 08 52 58.97 +22 22 37.3   699 – Lowell Observatory-LONEOS MPS 47316
2002 01 13.36875 08 51 24.25 +22 33 10.2 19.7   608 – Haleakala-AMOS MPS 47316
2002 01 13.37897 08 51 23.75 +22 33 14.3 19.7   608 – Haleakala-AMOS MPS 47316
2002 01 13.38974 08 51 23.13 +22 33 17.9 18.9   608 – Haleakala-AMOS MPS 47316
2002 01 13.40271 08 51 21.92 +22 33 20.0 18.6 V 691 – Steward Observatory, Kitt Peak-Spacewatch MPS 49882
2002 01 13.42524 08 51 20.69 +22 33 27.4 18.5 V 691 – Steward Observatory, Kitt Peak-Spacewatch MPS 49882
2002 01 13.44766 08 51 19.47 +22 33 34.8 18.5 V 691 – Steward Observatory, Kitt Peak-Spacewatch MPS 49882
2002 01 14.31642 08 50 34.40 +22 38 24.0 18.2   704 – Lincoln Laboratory ETS, New Mexico MPS 47316
2002 01 14.33152 08 50 33.55 +22 38 28.9 18.7   704 – Lincoln Laboratory ETS, New Mexico MPS 47316
2002 01 14.34696 08 50 32.69 +22 38 34.0 18.7   704 – Lincoln Laboratory ETS, New Mexico MPS 47316
2002 01 14.36397 08 50 31.76 +22 38 39.3 18.7   704 – Lincoln Laboratory ETS, New Mexico MPS 47316
2002 01 14.37931 08 50 30.88 +22 38 44.4 18.5   704 – Lincoln Laboratory ETS, New Mexico MPS 47316
2002 01 15.31087 08 49 41.18 +22 43 54.9 18.1   704 – Lincoln Laboratory ETS, New Mexico MPS 47316
2002 01 15.32609 08 49 40.31 +22 44 00.3 18.5   704 – Lincoln Laboratory ETS, New Mexico MPS 47316
2002 01 15.34129 08 49 39.45 +22 44 05.0 18.2   704 – Lincoln Laboratory ETS, New Mexico MPS 47316
2002 01 15.35663 08 49 38.54 +22 44 10.0 18.5   704 – Lincoln Laboratory ETS, New Mexico MPS 47316
2002 01 18.33407 08 46 52.18 +23 00 37.9 18.4   704 – Lincoln Laboratory ETS, New Mexico MPS 49882
2002 01 18.35012 08 46 51.20 +23 00 43.4 18.2   704 – Lincoln Laboratory ETS, New Mexico MPS 49882
2002 01 18.38109 08 46 49.38 +23 00 53.6 18.7   704 – Lincoln Laboratory ETS, New Mexico MPS 49882
2002 02 04.30094 08 29 46.27 +24 22 00.0 18.1   644 – Palomar Mountain/NEAT MPS 52469
2002 02 04.32306 08 29 44.91 +24 22 04.9 18.1   644 – Palomar Mountain/NEAT MPS 52469
2002 02 04.34367 08 29 43.65 +24 22 09.4 18.0   644 – Palomar Mountain/NEAT MPS 52469
2002 02 06.31065 08 27 50.34 +24 29 14.4 18.4   704 – Lincoln Laboratory ETS, New Mexico MPS 49882
2002 02 06.32562 08 27 49.46 +24 29 17.5 18.7   704 – Lincoln Laboratory ETS, New Mexico MPS 49882
2002 02 06.34062 08 27 48.52 +24 29 21.0 19.0   704 – Lincoln Laboratory ETS, New Mexico MPS 49882
2002 02 06.35561 08 27 47.66 +24 29 23.9 19.2   704 – Lincoln Laboratory ETS, New Mexico MPS 49882
2002 02 06.37077 08 27 46.76 +24 29 27.0 18.7   704 – Lincoln Laboratory ETS, New Mexico MPS 49882
2002 02 08.30700 08 25 59.43 +24 35 48.2 18.6   704 – Lincoln Laboratory ETS, New Mexico MPS 52469
2002 02 08.32135 08 25 58.60 +24 35 50.8 18.9   704 – Lincoln Laboratory ETS, New Mexico MPS 52469
2002 02 08.33570 08 25 57.78 +24 35 53.5 18.8   704 – Lincoln Laboratory ETS, New Mexico MPS 52469
2002 02 08.35004 08 25 56.96 +24 35 56.2 18.8   704 – Lincoln Laboratory ETS, New Mexico MPS 52469
2002 02 08.36463 08 25 56.12 +24 35 59.2 19.0   704 – Lincoln Laboratory ETS, New Mexico MPS 52469
2002 02 10.17299 08 24 20.56 +24 41 20.1 18.5   704 – Lincoln Laboratory ETS, New Mexico MPS 52469
2002 02 10.18708 08 24 19.80 +24 41 22.6 18.9   704 – Lincoln Laboratory ETS, New Mexico MPS 52469
2002 02 10.20118 08 24 19.02 +24 41 25.0 18.6   704 – Lincoln Laboratory ETS, New Mexico MPS 52469
2002 02 10.21547 08 24 18.21 +24 41 27.7 18.8   704 – Lincoln Laboratory ETS, New Mexico MPS 52469
2002 02 10.22957 08 24 17.46 +24 41 29.6 18.8   704 – Lincoln Laboratory ETS, New Mexico MPS 52469
2002 02 12.17122 08 22 39.59 +24 46 36.5 18.6   704 – Lincoln Laboratory ETS, New Mexico MPS 52469
2002 02 12.18527 08 22 38.90 +24 46 38.2 18.7   704 – Lincoln Laboratory ETS, New Mexico MPS 52469
2002 02 12.21339 08 22 37.33 +24 46 43.3 19.4   704 – Lincoln Laboratory ETS, New Mexico MPS 52469
2002 02 12.22745 08 22 36.66 +24 46 44.7 18.4   704 – Lincoln Laboratory ETS, New Mexico MPS 52469
